PulseSat

PulseSat

GSAT0103 (PRN E19)

Last updated on March 22, 2019, 3:12 a.m. UTC

1 38857U 12055A   19079.39198375 -.00000009  00000-0  00000-0 0  9995
2 38857  54.9238 174.3172 0003476 254.3726 105.6066  1.70473608 40057
UTC
Height (km)
Latitude
Longitude
Inclination
Orbital Period

Next 30 passes for location: Hong Kong

Rise time Rise Azimuth (degrees) Set time Set Azimuth (degrees) Duration Max altitude (degrees)

No matching passes for this satellites

PulseSat

PulseSat is the new satellites software and hardware trackering solution by Pulsely.
Satellite Two Line Element Set source: US Air Force Space Command

Download PulseSat for iOS
© 2017 Pulsely Limited